EW7598 Weather Reports


time (UTC)temp
F
wind
direction
speed
knots
gust
knots
rain 1hr
in
rain 24hr
in
rain mn
in
humidity
%
barometer
mb
20260503050016 40 23 0.0 0.0 0.00 0.00 0.00 85 1016.0
20260503044514 40 23 0.0 0.0 0.00 0.00 0.00 85 1015.8
20260503043010 41 23 0.0 0.0 0.00 0.00 0.00 85 1016.0
20260503041508 42 23 0.0 0.0 0.00 0.00 0.00 85 1015.7
20260503040005 42 23 0.0 0.0 0.00 0.00 0.00 85 1015.4
20260503034504 42 23 0.0 0.0 0.00 0.00 0.00 85 1015.4
20260503033003 42 23 0.0 0.0 0.00 0.00 0.00 85 1015.2
20260503031502 42 23 0.0 0.0 0.00 0.00 0.00 85 1015.3
20260503030059 43 23 0.0 0.0 0.00 0.00 0.00 84 1015.3
20260503024556 43 23 0.0 0.9 0.00 0.00 0.00 84 1015.2
20260503023053 43 23 0.0 0.9 0.00 0.00 0.00 84 1015.1
20260503021552 44 359 0.0 0.9 0.00 0.00 0.00 84 1014.9
20260503020052 44 359 0.0 0.0 0.00 0.00 0.00 84 1014.8
20260503014600 45 333 0.0 0.9 0.00 0.00 0.00 83 1014.6
20260503013046 45 207 0.0 0.0 0.00 0.00 0.00 83 1014.3
20260503011547 46 207 0.0 0.0 0.00 0.00 0.00 81 1014.1
20260503010042 47 207 0.0 0.0 0.00 0.00 0.00 78 1013.6
20260503004538 48 207 0.0 0.0 0.00 0.00 0.00 77 1013.2
20260503003048 49 207 0.0 0.0 0.00 0.00 0.00 75 1013.4
20260503001551 49 207 0.0 0.0 0.00 0.00 0.00 74 1013.4
20260503000033 50 207 0.0 0.0 0.00 0.00 0.00 67 1013.1
20260502234536 51 207 0.0 0.0 0.00 0.00 0.00 64 1013.0
20260502233032 52 207 0.0 0.0 0.00 0.00 0.00 61 1012.7
20260502231530 53 207 0.0 0.0 0.00 0.00 0.00 55 1012.4
20260502230034 55 207 0.0 0.0 0.00 0.00 0.00 53 1012.4
20260502224529 55 207 0.0 0.9 0.00 0.00 0.00 52 1012.2
20260502223032 56 195 0.0 1.7 0.00 0.00 0.00 50 1012.2
20260502221528 57 195 0.0 1.7 0.00 0.00 0.00 50 1011.8
20260502220034 57 272 0.0 0.9 0.00 0.00 0.00 48 1011.7
20260502214527 57 187 0.0 1.7 0.00 0.00 0.00 49 1011.8
20260502213027 57 184 0.0 0.9 0.00 0.00 0.00 49 1011.7
20260502211526 57 205 0.0 2.6 0.00 0.00 0.00 46 1011.6
20260502210025 57 146 0.0 2.6 0.00 0.00 0.00 49 1011.7
20260502204523 57 332 0.9 3.5 0.00 0.00 0.00 50 1011.8
20260502203025 56 215 0.0 1.7 0.00 0.00 0.00 50 1011.8
20260502201525 56 355 0.0 2.6 0.00 0.00 0.00 50 1011.9
20260502200017 55 11 0.0 4.3 0.00 0.00 0.00 51 1012.2
20260502194515 55 222 0.0 3.5 0.00 0.00 0.00 51 1012.5
20260502193015 55 177 0.0 1.7 0.00 0.00 0.00 53 1012.7
20260502191513 54 336 0.0 3.5 0.00 0.00 0.00 54 1012.8
20260502190013 54 333 0.0 3.5 0.00 0.00 0.00 53 1012.8
20260502184512 54 11 0.9 3.5 0.00 0.00 0.00 53 1012.8
20260502183014 54 44 0.0 5.2 0.00 0.00 0.00 52 1012.6
20260502181511 55 8 0.9 7.0 0.00 0.00 0.00 51 1013.0
20260502163100 54 349 3.5 9.6 0.00 0.00 0.00 50 1013.5
20260502161558 53 275 0.0 7.0 0.00 0.00 0.00 54 1014.1
20260502151603 53 252 0.0 6.1 0.00 0.00 0.00 57 1014.5
20260502150104 53 11 0.9 4.3 0.00 0.00 0.00 59 1014.1
20260502123053 52 129 0.9 3.5 0.00 0.00 0.00 79 1013.2
20260502121535 52 31 0.0 1.7 0.00 0.00 0.00 79 1013.4
20260502114536 52 333 0.0 1.7 0.00 0.00 0.00 80 1013.1
20260502113041 52 347 0.0 1.7 0.00 0.00 0.00 80 1013.0
20260502111534 52 311 0.0 0.9 0.00 0.00 0.00 80 1013.0
20260502110033 52 25 0.0 3.5 0.00 0.00 0.00 79 1012.8
20260502104538 52 316 0.0 2.6 0.00 0.00 0.00 80 1012.7
20260502103030 51 345 0.0 3.5 0.00 0.00 0.00 83 1012.8
20260502101529 51 20 0.0 1.7 0.00 0.00 0.00 84 1013.0
20260502091528 51 356 0.0 0.0 0.00 0.00 0.00 82 1013.4
20260502071515 50 356 0.0 0.0 0.00 0.00 0.00 81 1012.2
20260502070015 50 356 0.0 0.0 0.00 0.00 0.00 81 1012.3
20260502064514 50 356 0.0 0.9 0.00 0.00 0.00 81 1012.4
20260502063013 49 356 0.0 3.5 0.00 0.00 0.00 81 1012.6
20260502061513 49 165 0.0 0.0 0.00 0.00 0.00 82 1012.4
20260502060011 50 165 0.0 0.0 0.00 0.00 0.00 82 1012.3
20260502054511 50 165 0.0 0.0 0.00 0.00 0.00 82 1012.4
20260502053010 50 165 0.0 0.0 0.00 0.00 0.00 82 1012.3
20260502051520 50 165 0.0 0.0 0.00 0.00 0.00 82 1012.6